Find Starlink 4049

NORAD ID: 52840 Int'l Des: 2022-062 Owner: SPXS Country: US Constellation: starlink operational
LEOCIRCULAR

現在のビュー

3D地球を読み込み中...

About Starlink 4049

Starlink 4049 (NORAD 52840) is a starlink constellation satellite (v1.5) launched Jun 17, 2022 by SPXS of US. It operates in LEO, CIRCULAR orbit with a mass of 297.00 kg.

次回通過

Passes for default location (London). Set your location on the main map for personalized predictions.

高度履歴

Loading altitude history...

軌道要素

1 52840U 22062L 26262.50848470 .00034137 00000-0 10977-2 0 9999
2 52840 53.1612 208.0263 0002309 60.5407 299.5825 15.31963402235550
Epoch: Sep 19, 2026 • Age: 36 hours

現在のステータス

高度 488.8 km
遠地点 / 近地点 N/A
速度 7.62 km/s
衛星直下点 -51.00°S, 91.77°E
打ち上げ日 Jun 17, 2022
運用期間 4.2 years
タイプ internet

技術仕様

分類 Payload
質量 297.00 kg
乾燥質量 275.00 kg
長さ 0.20 m
スパン 9.00 m
形状 ? Box + pan
製造者 SPXS
バスタイプ Starlink
フェーズステータス In Orbit
所有者/国 SPXS/US

Most Searched